COSMOS 249 DEB, 3793

Orbit data source: Space-Track

COSMOS 249 DEB, 3793 is space debris in LEO originally from a launch on Sun, 20 Oct 1968 UTC launched from the Tyuratam Missile And Space Complex (TTMTR). Debris objects in space refer to the collection of defunct objects orbiting the Earth. Examples of debris include non-operational satellites, rocket bodies, and fragments generated from explosions, collisions, or faulty payload assembly.

Loading next visibility...
Identifier
3793, 1968-091BA
Orbit
LEO
Country
Flag of CISCIS
Related business
Manufacturer
Unknown
Mission
Spacecraft
Bus & Motor
Unknown
Mass
Unknown
Launch date (UTC)
1968-10-20 (58 years ago)
Launch vehicle
Unknown
Launch site
Tyuratam Missile And Space Complex (TTMTR)
Object type
Payload
Rocket body
Debris
Shape & HBR
Unknown shape, 1.1 m
Radar Cross Section
Medium (>0.1 m² and <1 m²)

Expand to show TLE details & history
Last TLE update: 2 days ago

TLE from 2 days ago
0 COSMOS 249 DEB
1 03793U 68091BA  26173.27800383  .00001207  00000-0  11807-2 0  9995
2 03793  62.2216 237.5515 0607605 335.5783  21.7501 13.21612797702058
Epoch: 2026-06-22T06:40Z
TLE epoch observation values (Epoch: 2026-06-22T06:40:19.530Z)
Latitude
-0.00008°
Longitude
-132.99614°
Altitude
757.919 km
Speed
7.682 km/s
True Right ascension
15h 50m 12s
True Declination
0° 00' 00"
Sunlit
Object was in full shadow at epoch
Visualization orbit readout
Latitude
Unknown
Longitude
Unknown
Altitude
Unknown
Speed
Unknown
Apparent Right ascension
Unknown
Apparent Declination
Unknown
Sunlit
N/A
Visualization observer readout
Local Sidereal Time
01:58:53
Azimuth
Unknown
Elevation
Unknown
Doppler factor
Unknown
Orbital elements
Apogee altitude
1,636.637 km
Perigee altitude
718.463 km
Semi-major axis
7,555.687 km
Eccentricity
0.06076
Inclination
62.2216°
RAAN
237.5515°
Arg. of periapsis
335.5783°
True anomaly
24.52424°
Mean anomaly
21.7501°
Eccentric anomaly
23.1169°
Mean motion
3.3047 °/min
Orbital period
108.94 mins
BSTAR
0.0011807
Loading maneuver chart data...
Computing Atmospheric mass density...

Documentation

Showing up to 5 results
|